Time,TemperatureF,DewpointF,PressureIn,WindDirection,WindDirectionDegrees,WindSpeedMPH,WindSpeedGustMPH,Humidity,HourlyPrecipIn,Conditions,Clouds,dailyrainin,SolarRadiationWatts/m^2,SoftwareType,DateUTC
2013-09-22 00:02:00,50.7,48.5,30.00,WSW,242,0.0,0.0,92,0.00,,CLR,0.00,0.00,VWS V14.01,2013-09-22 05:02:00,
2013-09-22 00:06:00,51.1,48.9,30.00,WSW,242,0.0,0.0,92,0.00,,CLR,0.00,0.00,VWS V14.01,2013-09-22 05:06:00,
2013-09-22 00:12:00,51.3,49.1,29.99,WSW,242,0.0,0.0,92,0.00,,CLR,0.00,0.00,VWS V14.01,2013-09-22 05:12:00,
2013-09-22 00:17:00,51.7,49.5,29.99,WSW,242,0.0,0.0,92,0.00,,CLR,0.00,0.00,VWS V14.01,2013-09-22 05:17:00,
2013-09-22 00:22:00,52.0,49.8,29.99,WSW,242,0.0,0.0,92,0.00,,CLR,0.00,0.00,VWS V14.01,2013-09-22 05:22:00,
2013-09-22 00:27:00,52.1,49.8,29.99,WSW,242,0.0,0.0,92,0.00,,CLR,0.00,0.00,VWS V14.01,2013-09-22 05:27:00,
2013-09-22 00:32:00,51.5,49.0,29.99,WSW,242,0.0,0.0,91,0.00,,CLR,0.00,0.00,VWS V14.01,2013-09-22 05:32:00,
2013-09-22 00:37:00,50.5,48.0,29.99,WSW,242,0.0,0.0,91,0.00,,CLR,0.00,0.00,VWS V14.01,2013-09-22 05:37:00,
2013-09-22 00:42:00,50.1,47.9,29.99,WSW,242,0.0,0.0,92,0.00,,CLR,0.00,0.00,VWS V14.01,2013-09-22 05:42:00,
2013-09-22 00:47:00,50.4,48.2,29.99,WSW,242,0.0,0.0,92,0.00,,CLR,0.00,0.00,VWS V14.01,2013-09-22 05:47:00,
2013-09-22 00:52:00,50.2,48.0,29.99,WSW,242,0.0,0.0,92,0.00,,CLR,0.00,0.00,VWS V14.01,2013-09-22 05:52:00,
2013-09-22 00:57:00,50.0,47.8,29.99,WSW,242,0.0,0.0,92,0.00,,CLR,0.00,0.00,VWS V14.01,2013-09-22 05:57:00,
2013-09-22 01:02:00,50.2,48.0,29.99,WSW,242,0.0,0.0,92,0.00,,CLR,0.00,0.00,VWS V14.01,2013-09-22 06:02:00,
2013-09-22 01:07:00,50.2,48.0,29.99,WSW,242,0.0,0.0,92,0.00,,CLR,0.00,0.00,VWS V14.01,2013-09-22 06:07:00,
2013-09-22 01:12:00,50.3,48.1,29.99,WSW,242,0.0,0.0,92,0.00,,CLR,0.00,0.00,VWS V14.01,2013-09-22 06:12:00,
2013-09-22 01:17:00,49.9,47.7,29.99,WSW,242,0.0,0.0,92,0.00,,CLR,0.00,0.00,VWS V14.01,2013-09-22 06:17:00,
2013-09-22 01:22:00,49.8,47.6,29.99,WSW,242,0.0,0.0,92,0.00,,CLR,0.00,0.00,VWS V14.01,2013-09-22 06:22:00,
2013-09-22 01:27:00,50.0,48.1,29.99,WSW,242,0.0,0.0,93,0.00,,CLR,0.00,0.00,VWS V14.01,2013-09-22 06:27:00,
2013-09-22 01:32:00,49.9,47.7,30.00,WSW,242,0.0,0.0,92,0.00,,CLR,0.00,0.00,VWS V14.01,2013-09-22 06:32:00,
2013-09-22 01:37:00,49.5,47.3,30.00,WSW,242,0.0,0.0,92,0.00,,CLR,0.00,0.00,VWS V14.01,2013-09-22 06:37:00,
2013-09-22 01:42:00,49.8,47.6,29.99,WSW,242,0.0,0.0,92,0.00,,CLR,0.00,0.00,VWS V14.01,2013-09-22 06:42:00,
2013-09-22 01:47:00,50.2,48.3,30.00,WSW,242,0.0,0.0,93,0.00,,CLR,0.00,0.00,VWS V14.01,2013-09-22 06:47:00,
2013-09-22 01:52:00,50.3,48.4,30.00,WSW,242,0.0,0.0,93,0.00,,CLR,0.00,0.00,VWS V14.01,2013-09-22 06:52:00,
2013-09-22 01:57:00,50.7,48.8,30.00,WSW,242,0.0,0.0,93,0.00,,CLR,0.00,0.00,VWS V14.01,2013-09-22 06:57:00,
2013-09-22 02:02:00,50.8,48.8,30.00,WSW,242,0.0,0.0,93,0.00,,CLR,0.00,0.00,VWS V14.01,2013-09-22 07:02:00,
2013-09-22 02:07:00,51.0,49.0,30.00,WSW,242,0.0,0.0,93,0.00,,CLR,0.00,0.00,VWS V14.01,2013-09-22 07:07:00,
2013-09-22 02:12:00,51.1,49.2,30.00,WSW,242,0.0,0.0,93,0.00,,CLR,0.00,0.00,VWS V14.01,2013-09-22 07:12:00,
2013-09-22 02:17:00,51.0,48.8,30.00,WSW,242,0.0,0.0,92,0.00,,CLR,0.00,0.00,VWS V14.01,2013-09-22 07:17:00,
2013-09-22 02:22:00,51.0,48.8,30.00,WSW,242,0.0,1.0,92,0.00,,CLR,0.00,0.00,VWS V14.01,2013-09-22 07:22:00,
2013-09-22 02:27:00,51.0,48.8,30.00,WSW,242,0.0,0.0,92,0.00,,CLR,0.00,0.00,VWS V14.01,2013-09-22 07:27:00,
2013-09-22 02:32:00,51.0,48.8,30.00,WSW,242,0.0,0.0,92,0.00,,CLR,0.00,0.00,VWS V14.01,2013-09-22 07:32:00,
2013-09-22 02:37:00,51.1,48.9,30.00,WSW,242,0.0,1.0,92,0.00,,CLR,0.00,0.00,VWS V14.01,2013-09-22 07:37:00,
2013-09-22 02:42:00,51.2,49.0,30.00,WSW,242,0.0,1.0,92,0.00,,CLR,0.00,0.00,VWS V14.01,2013-09-22 07:42:00,
2013-09-22 02:47:00,51.2,49.0,30.00,WSW,242,0.0,0.0,92,0.00,,CLR,0.00,0.00,VWS V14.01,2013-09-22 07:47:00,
2013-09-22 02:52:00,50.9,48.7,30.00,WSW,242,0.0,1.0,92,0.00,,CLR,0.00,0.00,VWS V14.01,2013-09-22 07:52:00,
2013-09-22 02:57:00,50.6,48.1,30.00,WSW,242,0.0,1.0,91,0.00,,CLR,0.00,0.00,VWS V14.01,2013-09-22 07:57:00,
2013-09-22 03:02:00,50.5,48.0,30.00,WSW,242,0.0,1.0,91,0.00,,CLR,0.00,0.00,VWS V14.01,2013-09-22 08:02:00,
2013-09-22 03:07:00,50.5,48.0,30.00,WSW,242,0.0,0.0,91,0.00,,CLR,0.00,0.00,VWS V14.01,2013-09-22 08:07:00,
2013-09-22 03:12:00,50.7,48.2,30.00,WSW,242,0.0,1.0,91,0.00,,CLR,0.00,0.00,VWS V14.01,2013-09-22 08:12:00,
2013-09-22 03:17:00,50.8,48.3,30.00,WSW,242,0.0,0.0,91,0.00,,CLR,0.00,0.00,VWS V14.01,2013-09-22 08:17:00,
2013-09-22 03:22:00,50.6,48.1,30.00,WSW,242,0.0,0.0,91,0.00,,CLR,0.00,0.00,VWS V14.01,2013-09-22 08:22:00,
2013-09-22 03:27:00,50.1,47.3,30.00,WSW,242,0.0,1.0,90,0.00,,CLR,0.00,0.00,VWS V14.01,2013-09-22 08:27:00,
2013-09-22 03:32:00,50.1,47.3,30.00,WSW,242,0.0,1.0,90,0.00,,CLR,0.00,0.00,VWS V14.01,2013-09-22 08:32:00,
2013-09-22 03:37:00,50.3,47.5,30.00,WSW,242,0.0,0.0,90,0.00,,CLR,0.00,0.00,VWS V14.01,2013-09-22 08:37:00,
2013-09-22 03:42:00,49.7,46.6,30.00,WSW,242,0.0,0.0,89,0.00,,CLR,0.00,0.00,VWS V14.01,2013-09-22 08:42:00,
2013-09-22 03:47:00,49.4,46.6,30.00,WSW,242,0.0,0.0,90,0.00,,CLR,0.00,0.00,VWS V14.01,2013-09-22 08:47:00,
2013-09-22 03:52:00,49.1,46.3,30.00,WSW,242,0.0,0.0,90,0.00,,CLR,0.00,0.00,VWS V14.01,2013-09-22 08:52:00,
2013-09-22 03:57:00,49.2,46.4,30.00,WSW,242,0.0,2.0,90,0.00,,CLR,0.00,0.00,VWS V14.01,2013-09-22 08:57:00,
2013-09-22 04:02:00,49.4,46.6,30.00,WSW,242,0.0,1.0,90,0.00,,CLR,0.00,0.00,VWS V14.01,2013-09-22 09:02:00,
2013-09-22 04:07:00,49.5,46.7,30.00,WSW,242,0.0,0.0,90,0.00,,CLR,0.00,0.00,VWS V14.01,2013-09-22 09:07:00,
2013-09-22 04:12:00,49.4,46.6,30.00,WSW,242,0.0,0.0,90,0.00,,CLR,0.00,0.00,VWS V14.01,2013-09-22 09:12:00,
2013-09-22 04:17:00,49.3,46.2,30.00,WSW,242,0.0,0.0,89,0.00,,CLR,0.00,0.00,VWS V14.01,2013-09-22 09:17:00,
2013-09-22 04:22:00,49.0,45.9,30.00,WSW,242,0.0,0.0,89,0.00,,CLR,0.00,0.00,VWS V14.01,2013-09-22 09:22:00,
2013-09-22 04:27:00,48.8,46.0,30.00,WSW,242,0.0,0.0,90,0.00,,CLR,0.00,0.00,VWS V14.01,2013-09-22 09:27:00,
2013-09-22 04:32:00,48.8,46.0,30.00,WSW,242,0.0,0.0,90,0.00,,CLR,0.00,0.00,VWS V14.01,2013-09-22 09:32:00,
2013-09-22 04:37:00,48.7,45.9,30.00,WSW,242,1.0,1.0,90,0.00,,CLR,0.00,0.00,VWS V14.01,2013-09-22 09:37:00,
2013-09-22 04:42:00,48.7,45.9,30.00,WSW,242,0.0,1.0,90,0.00,,CLR,0.00,0.00,VWS V14.01,2013-09-22 09:42:00,
2013-09-22 04:47:00,48.7,45.9,30.00,WSW,242,0.0,0.0,90,0.00,,CLR,0.00,0.00,VWS V14.01,2013-09-22 09:47:00,
2013-09-22 04:52:00,48.8,46.0,30.00,WSW,242,0.0,0.0,90,0.00,,CLR,0.00,0.00,VWS V14.01,2013-09-22 09:52:00,
2013-09-22 04:57:00,48.9,46.1,30.00,WSW,242,0.0,0.0,90,0.00,,CLR,0.00,0.00,VWS V14.01,2013-09-22 09:57:00,
2013-09-22 05:02:00,48.9,46.1,30.01,WSW,242,0.0,0.0,90,0.00,,CLR,0.00,0.00,VWS V14.01,2013-09-22 10:02:00,
2013-09-22 05:07:00,49.0,46.2,30.00,WSW,242,0.0,1.0,90,0.00,,CLR,0.00,0.00,VWS V14.01,2013-09-22 10:07:00,
2013-09-22 05:12:00,49.0,46.2,30.01,WSW,242,2.0,2.0,90,0.00,,CLR,0.00,0.00,VWS V14.01,2013-09-22 10:12:00,
2013-09-22 05:17:00,49.0,46.2,30.01,WSW,242,1.0,2.0,90,0.00,,CLR,0.00,0.00,VWS V14.01,2013-09-22 10:17:00,
2013-09-22 05:22:00,49.0,46.2,30.00,WSW,242,1.0,2.0,90,0.00,,CLR,0.00,0.00,VWS V14.01,2013-09-22 10:22:00,
2013-09-22 05:27:00,49.3,46.5,30.01,WSW,242,0.0,1.0,90,0.00,,CLR,0.00,0.00,VWS V14.01,2013-09-22 10:27:00,
2013-09-22 05:32:00,49.6,46.8,30.01,WSW,242,0.0,0.0,90,0.00,,CLR,0.00,0.00,VWS V14.01,2013-09-22 10:32:00,
2013-09-22 05:37:00,49.5,46.7,30.01,WSW,242,0.0,0.0,90,0.00,,CLR,0.00,0.00,VWS V14.01,2013-09-22 10:37:00,
2013-09-22 05:42:00,49.5,46.7,30.01,WSW,242,0.0,1.0,90,0.00,,CLR,0.00,0.00,VWS V14.01,2013-09-22 10:42:00,
2013-09-22 05:47:00,49.4,46.6,30.01,WSW,242,0.0,1.0,90,0.00,,CLR,0.00,0.00,VWS V14.01,2013-09-22 10:47:00,
2013-09-22 05:52:00,49.3,46.5,30.01,WSW,242,0.0,2.0,90,0.00,,CLR,0.00,0.00,VWS V14.01,2013-09-22 10:52:00,
2013-09-22 05:57:00,49.2,46.4,30.01,WSW,242,0.0,1.0,90,0.00,,CLR,0.00,0.00,VWS V14.01,2013-09-22 10:57:00,
2013-09-22 06:02:00,49.2,46.4,30.01,WSW,242,0.0,0.0,90,0.00,,CLR,0.00,0.00,VWS V14.01,2013-09-22 11:02:00,
2013-09-22 06:07:00,49.2,46.4,30.02,WSW,242,0.0,0.0,90,0.00,,CLR,0.00,0.00,VWS V14.01,2013-09-22 11:07:00,
2013-09-22 06:12:00,48.9,46.1,30.02,WSW,242,0.0,0.0,90,0.00,,CLR,0.00,0.00,VWS V14.01,2013-09-22 11:12:00,
2013-09-22 06:17:00,48.8,46.0,30.02,WSW,242,1.0,1.0,90,0.00,,CLR,0.00,0.00,VWS V14.01,2013-09-22 11:17:00,
2013-09-22 06:22:00,48.7,45.9,30.02,ENE,75,1.0,4.0,90,0.00,,CLR,0.00,0.00,VWS V14.01,2013-09-22 11:22:00,
2013-09-22 06:27:00,48.5,45.7,30.02,ENE,75,0.0,2.0,90,0.00,,CLR,0.00,0.00,VWS V14.01,2013-09-22 11:27:00,
2013-09-22 06:32:00,48.6,45.8,30.02,ENE,75,0.0,0.0,90,0.00,,CLR,0.00,0.00,VWS V14.01,2013-09-22 11:32:00,
2013-09-22 06:37:00,48.5,45.7,30.02,ENE,75,0.0,0.0,90,0.00,,CLR,0.00,0.00,VWS V14.01,2013-09-22 11:37:00,
2013-09-22 06:42:00,48.3,45.5,30.02,ENE,75,0.0,2.0,90,0.00,,CLR,0.00,0.00,VWS V14.01,2013-09-22 11:42:00,
2013-09-22 06:47:00,48.2,45.4,30.02,ENE,75,1.0,2.0,90,0.00,,CLR,0.00,0.00,VWS V14.01,2013-09-22 11:47:00,
2013-09-22 06:52:00,48.1,45.3,30.02,ENE,75,2.0,2.0,90,0.00,,CLR,0.00,0.00,VWS V14.01,2013-09-22 11:52:00,
2013-09-22 06:57:00,48.1,45.3,30.02,ENE,75,2.0,2.0,90,0.00,,CLR,0.00,0.00,VWS V14.01,2013-09-22 11:57:00,
2013-09-22 07:02:00,48.0,45.2,30.02,ENE,75,0.0,1.0,90,0.00,,CLR,0.00,5.00,VWS V14.01,2013-09-22 12:02:00,
2013-09-22 07:07:00,48.0,45.2,30.03,ENE,75,0.0,0.0,90,0.00,,CLR,0.00,7.00,VWS V14.01,2013-09-22 12:07:00,
2013-09-22 07:12:00,48.0,45.2,30.03,ENE,75,0.0,1.0,90,0.00,,CLR,0.00,11.00,VWS V14.01,2013-09-22 12:12:00,
2013-09-22 07:17:00,48.1,45.6,30.03,ENE,75,0.0,1.0,91,0.00,,CLR,0.00,14.00,VWS V14.01,2013-09-22 12:17:00,
2013-09-22 07:22:00,48.2,45.7,30.03,ENE,75,0.0,1.0,91,0.00,,CLR,0.00,16.00,VWS V14.01,2013-09-22 12:22:00,
2013-09-22 07:27:00,48.4,45.9,30.03,ENE,75,0.0,0.0,91,0.00,,CLR,0.00,19.00,VWS V14.01,2013-09-22 12:27:00,
2013-09-22 07:32:00,48.7,46.2,30.03,ENE,75,0.0,1.0,91,0.00,,CLR,0.00,21.00,VWS V14.01,2013-09-22 12:32:00,
2013-09-22 07:37:00,49.0,46.5,30.03,ENE,75,2.0,2.0,91,0.00,,CLR,0.00,23.00,VWS V14.01,2013-09-22 12:37:00,
2013-09-22 07:42:00,49.4,46.9,30.03,ENE,75,0.0,1.0,91,0.00,,CLR,0.00,25.00,VWS V14.01,2013-09-22 12:42:00,
2013-09-22 07:47:00,49.8,47.3,30.03,East,85,0.0,1.0,91,0.00,,CLR,0.00,28.00,VWS V14.01,2013-09-22 12:47:00,
2013-09-22 07:52:00,50.1,47.3,30.03,East,85,0.0,2.0,90,0.00,,CLR,0.00,28.00,VWS V14.01,2013-09-22 12:52:00,
2013-09-22 07:57:00,50.5,47.7,30.03,East,85,1.0,2.0,90,0.00,,CLR,0.00,30.00,VWS V14.01,2013-09-22 12:57:00,
2013-09-22 08:02:00,50.8,47.7,30.03,ESE,121,2.0,5.0,89,0.00,,CLR,0.00,32.00,VWS V14.01,2013-09-22 13:02:00,
2013-09-22 08:07:00,51.2,48.1,30.03,ESE,121,1.0,3.0,89,0.00,,CLR,0.00,33.00,VWS V14.01,2013-09-22 13:07:00,
2013-09-22 08:12:00,51.4,48.3,30.03,ESE,121,1.0,2.0,89,0.00,,CLR,0.00,33.00,VWS V14.01,2013-09-22 13:12:00,
2013-09-22 08:17:00,51.8,48.7,30.04,SE,126,2.0,5.0,89,0.00,,CLR,0.00,35.00,VWS V14.01,2013-09-22 13:17:00,
2013-09-22 08:22:00,52.2,48.8,30.04,SE,126,0.0,3.0,88,0.00,,CLR,0.00,37.00,VWS V14.01,2013-09-22 13:22:00,
2013-09-22 08:27:00,52.6,49.2,30.04,SE,126,0.0,3.0,88,0.00,,CLR,0.00,37.00,VWS V14.01,2013-09-22 13:27:00,
2013-09-22 08:32:00,53.3,49.8,30.04,SE,126,0.0,1.0,88,0.00,,CLR,0.00,62.00,VWS V14.01,2013-09-22 13:32:00,
2013-09-22 08:37:00,54.0,50.2,30.04,SE,126,0.0,1.0,87,0.00,,CLR,0.00,125.00,VWS V14.01,2013-09-22 13:37:00,
2013-09-22 08:42:00,55.0,50.9,30.04,SE,137,1.0,4.0,86,0.00,,CLR,0.00,172.00,VWS V14.01,2013-09-22 13:42:00,
2013-09-22 08:47:00,55.9,51.5,30.05,SE,137,2.0,2.0,85,0.00,,CLR,0.00,232.00,VWS V14.01,2013-09-22 13:47:00,
2013-09-22 08:52:00,57.0,52.2,30.05,South,191,4.0,5.0,84,0.00,,CLR,0.00,239.00,VWS V14.01,2013-09-22 13:52:00,
2013-09-22 08:57:00,57.7,52.6,30.05,South,190,2.0,3.0,83,0.00,,CLR,0.00,272.00,VWS V14.01,2013-09-22 13:57:00,
2013-09-22 09:02:00,58.2,52.4,30.05,SSE,166,4.0,6.0,81,0.00,,CLR,0.00,297.00,VWS V14.01,2013-09-22 14:02:00,
2013-09-22 09:07:00,58.6,53.1,30.05,SSE,165,5.0,6.0,82,0.00,,CLR,0.00,316.00,VWS V14.01,2013-09-22 14:07:00,
2013-09-22 09:12:00,59.0,53.2,30.05,SSE,168,4.0,10.0,81,0.00,,CLR,0.00,330.00,VWS V14.01,2013-09-22 14:12:00,
2013-09-22 09:17:00,59.3,53.5,30.05,SE,140,2.0,3.0,81,0.00,,CLR,0.00,352.00,VWS V14.01,2013-09-22 14:17:00,
2013-09-22 09:22:00,59.6,53.1,30.05,SE,138,0.0,3.0,79,0.00,,CLR,0.00,371.00,VWS V14.01,2013-09-22 14:22:00,
2013-09-22 09:27:00,59.8,52.9,30.04,ESE,109,2.0,5.0,78,0.00,,CLR,0.00,392.00,VWS V14.01,2013-09-22 14:27:00,
2013-09-22 09:32:00,60.4,53.5,30.04,South,184,6.0,6.0,78,0.00,,CLR,0.00,411.00,VWS V14.01,2013-09-22 14:32:00,
2013-09-22 09:37:00,60.8,53.5,30.04,SE,135,4.0,6.0,77,0.00,,CLR,0.00,422.00,VWS V14.01,2013-09-22 14:37:00,
2013-09-22 09:42:00,61.4,54.1,30.04,South,177,5.0,6.0,77,0.00,,CLR,0.00,429.00,VWS V14.01,2013-09-22 14:42:00,
2013-09-22 09:47:00,62.2,54.2,30.04,SSE,158,1.0,6.0,75,0.00,,CLR,0.00,436.00,VWS V14.01,2013-09-22 14:47:00,
2013-09-22 09:52:00,63.0,54.6,30.04,South,177,5.0,6.0,74,0.00,,CLR,0.00,445.00,VWS V14.01,2013-09-22 14:52:00,
2013-09-22 09:57:00,63.4,54.6,30.04,South,172,4.0,10.0,73,0.00,,CLR,0.00,450.00,VWS V14.01,2013-09-22 14:57:00,
2013-09-22 10:02:00,64.1,55.7,30.04,SSW,197,5.0,6.0,74,0.00,,CLR,0.00,450.00,VWS V14.01,2013-09-22 15:02:00,
2013-09-22 10:07:00,64.1,55.3,30.04,South,185,6.0,7.0,73,0.00,,CLR,0.00,450.00,VWS V14.01,2013-09-22 15:07:00,
2013-09-22 10:12:00,64.4,54.4,30.04,SE,125,4.0,7.0,70,0.00,,CLR,0.00,457.00,VWS V14.01,2013-09-22 15:12:00,
2013-09-22 10:17:00,64.9,55.7,30.05,South,170,6.0,10.0,72,0.00,,CLR,0.00,469.00,VWS V14.01,2013-09-22 15:17:00,
2013-09-22 10:22:00,65.6,55.6,30.05,SE,135,5.0,10.0,70,0.00,,CLR,0.00,487.00,VWS V14.01,2013-09-22 15:22:00,
2013-09-22 10:27:00,66.0,55.5,30.05,South,188,10.0,11.0,69,0.00,,CLR,0.00,520.00,VWS V14.01,2013-09-22 15:27:00,
2013-09-22 10:32:00,66.7,56.2,30.05,South,176,9.0,10.0,69,0.00,,CLR,0.00,554.00,VWS V14.01,2013-09-22 15:32:00,
2013-09-22 10:37:00,67.0,55.3,30.05,SSE,168,6.0,10.0,66,0.00,,CLR,0.00,585.00,VWS V14.01,2013-09-22 15:37:00,
2013-09-22 10:42:00,67.7,57.2,30.04,SE,139,4.0,6.0,69,0.00,,CLR,0.00,615.00,VWS V14.01,2013-09-22 15:42:00,
2013-09-22 10:47:00,68.0,56.7,30.04,SSW,198,5.0,9.0,67,0.00,,CLR,0.00,640.00,VWS V14.01,2013-09-22 15:47:00,
2013-09-22 10:52:00,68.1,55.5,30.04,South,171,4.0,8.0,64,0.00,,CLR,0.00,654.00,VWS V14.01,2013-09-22 15:52:00,
2013-09-22 10:57:00,68.7,56.0,30.04,South,189,7.0,13.0,64,0.00,,CLR,0.00,664.00,VWS V14.01,2013-09-22 15:57:00,
2013-09-22 11:02:00,68.9,55.8,30.04,South,176,9.0,14.0,63,0.00,,CLR,0.00,675.00,VWS V14.01,2013-09-22 16:02:00,
2013-09-22 11:07:00,69.3,56.6,30.04,South,170,4.0,10.0,64,0.00,,CLR,0.00,684.00,VWS V14.01,2013-09-22 16:07:00,
2013-09-22 11:12:00,69.5,55.9,30.04,SSW,201,6.0,9.0,62,0.00,,CLR,0.00,694.00,VWS V14.01,2013-09-22 16:12:00,
2013-09-22 11:17:00,69.8,56.7,30.04,South,190,6.0,11.0,63,0.00,,CLR,0.00,700.00,VWS V14.01,2013-09-22 16:17:00,
2013-09-22 11:22:00,71.0,56.4,30.03,SSW,203,9.0,14.0,60,0.00,,CLR,0.00,691.00,VWS V14.01,2013-09-22 16:22:00,
2013-09-22 11:27:00,71.2,54.7,30.03,SSW,210,11.0,15.0,56,0.00,,CLR,0.00,680.00,VWS V14.01,2013-09-22 16:27:00,
2013-09-22 11:32:00,71.3,55.8,30.03,SSW,194,13.0,13.0,58,0.00,,CLR,0.00,656.00,VWS V14.01,2013-09-22 16:32:00,
2013-09-22 11:37:00,72.0,56.0,30.03,South,184,6.0,11.0,57,0.00,,CLR,0.00,631.00,VWS V14.01,2013-09-22 16:37:00,
2013-09-22 11:42:00,71.9,55.9,30.03,South,184,7.0,14.0,57,0.00,,CLR,0.00,606.00,VWS V14.01,2013-09-22 16:42:00,
2013-09-22 11:47:00,72.6,56.5,30.03,South,186,6.0,11.0,57,0.00,,CLR,0.00,592.00,VWS V14.01,2013-09-22 16:47:00,
2013-09-22 11:52:00,72.1,56.0,30.03,SSW,194,9.0,11.0,57,0.00,,CLR,0.00,594.00,VWS V14.01,2013-09-22 16:52:00,
2013-09-22 11:57:00,72.5,55.9,30.03,SSW,197,10.0,12.0,56,0.00,,CLR,0.00,610.00,VWS V14.01,2013-09-22 16:57:00,
2013-09-22 12:02:00,72.8,55.2,30.03,South,190,3.0,12.0,54,0.00,,CLR,0.00,636.00,VWS V14.01,2013-09-22 17:02:00,
2013-09-22 12:07:00,72.9,56.3,30.03,SE,138,6.0,9.0,56,0.00,,CLR,0.00,670.00,VWS V14.01,2013-09-22 17:07:00,
2013-09-22 12:12:00,73.0,55.9,30.03,SSW,195,8.0,11.0,55,0.00,,CLR,0.00,693.00,VWS V14.01,2013-09-22 17:12:00,
2013-09-22 12:17:00,73.3,56.2,30.03,South,170,4.0,10.0,55,0.00,,CLR,0.00,686.00,VWS V14.01,2013-09-22 17:17:00,
2013-09-22 12:22:00,73.5,55.9,30.02,South,179,6.0,11.0,54,0.00,,CLR,0.00,668.00,VWS V14.01,2013-09-22 17:22:00,
2013-09-22 12:27:00,73.8,57.1,30.02,South,173,9.0,12.0,56,0.00,,CLR,0.00,647.00,VWS V14.01,2013-09-22 17:27:00,
2013-09-22 12:32:00,73.9,56.2,30.02,SW,214,11.0,11.0,54,0.00,,CLR,0.00,645.00,VWS V14.01,2013-09-22 17:32:00,
2013-09-22 12:37:00,74.3,55.6,30.02,South,177,6.0,9.0,52,0.00,,CLR,0.00,666.00,VWS V14.01,2013-09-22 17:37:00,
2013-09-22 12:43:00,73.5,55.3,30.01,SE,128,6.0,10.0,53,0.00,,CLR,0.00,705.00,VWS V14.01,2013-09-22 17:43:00,
2013-09-22 12:48:00,74.1,57.4,30.01,SSE,167,4.0,10.0,56,0.00,,CLR,0.00,744.00,VWS V14.01,2013-09-22 17:48:00,
2013-09-22 12:53:00,74.8,55.5,30.01,South,175,8.0,13.0,51,0.00,,CLR,0.00,784.00,VWS V14.01,2013-09-22 17:53:00,
2013-09-22 12:58:00,74.7,56.5,30.01,SSE,149,4.0,9.0,53,0.00,,CLR,0.00,802.00,VWS V14.01,2013-09-22 17:58:00,
2013-09-22 13:03:00,74.7,56.5,30.01,SE,146,9.0,11.0,53,0.00,,CLR,0.00,800.00,VWS V14.01,2013-09-22 18:03:00,
2013-09-22 13:08:00,74.6,54.2,30.01,ESE,123,6.0,8.0,49,0.00,,CLR,0.00,800.00,VWS V14.01,2013-09-22 18:08:00,
2013-09-22 13:13:00,75.2,55.8,30.01,South,176,6.0,14.0,51,0.00,,CLR,0.00,802.00,VWS V14.01,2013-09-22 18:13:00,
2013-09-22 13:18:00,74.9,55.6,30.00,SSE,164,10.0,11.0,51,0.00,,CLR,0.00,800.00,VWS V14.01,2013-09-22 18:18:00,
2013-09-22 13:23:00,75.5,57.2,30.00,SSW,198,6.0,10.0,53,0.00,,CLR,0.00,800.00,VWS V14.01,2013-09-22 18:23:00,
2013-09-22 13:28:00,75.8,55.9,30.00,SSE,152,5.0,17.0,50,0.00,,CLR,0.00,796.00,VWS V14.01,2013-09-22 18:28:00,
2013-09-22 13:33:00,75.4,55.5,29.99,SE,139,1.0,7.0,50,0.00,,CLR,0.00,795.00,VWS V14.01,2013-09-22 18:33:00,
2013-09-22 13:38:00,75.9,57.0,29.99,SSW,194,9.0,13.0,52,0.00,,CLR,0.00,791.00,VWS V14.01,2013-09-22 18:38:00,
2013-09-22 13:43:00,75.5,55.0,29.99,South,176,6.0,8.0,49,0.00,,CLR,0.00,788.00,VWS V14.01,2013-09-22 18:43:00,
2013-09-22 13:48:00,75.9,58.1,29.99,SSE,157,2.0,10.0,54,0.00,,CLR,0.00,784.00,VWS V14.01,2013-09-22 18:48:00,
2013-09-22 13:53:00,76.5,56.5,29.99,South,174,5.0,14.0,50,0.00,,CLR,0.00,780.00,VWS V14.01,2013-09-22 18:53:00,
2013-09-22 13:58:00,75.8,55.3,29.99,SSE,157,5.0,12.0,49,0.00,,CLR,0.00,775.00,VWS V14.01,2013-09-22 18:58:00,
2013-09-22 14:03:00,76.0,57.1,29.99,SSE,153,5.0,10.0,52,0.00,,CLR,0.00,772.00,VWS V14.01,2013-09-22 19:03:00,
2013-09-22 14:08:00,75.7,57.4,29.98,South,170,6.0,10.0,53,0.00,,CLR,0.00,768.00,VWS V14.01,2013-09-22 19:08:00,
2013-09-22 14:13:00,76.2,55.7,29.98,SE,139,6.0,15.0,49,0.00,,CLR,0.00,761.00,VWS V14.01,2013-09-22 19:13:00,
2013-09-22 14:18:00,76.5,57.6,29.98,SSW,197,7.0,7.0,52,0.00,,CLR,0.00,754.00,VWS V14.01,2013-09-22 19:18:00,
2013-09-22 14:23:00,76.6,57.1,29.98,ESE,110,3.0,9.0,51,0.00,,CLR,0.00,747.00,VWS V14.01,2013-09-22 19:23:00,
2013-09-22 14:28:00,76.1,57.8,29.97,SE,143,6.0,9.0,53,0.00,,CLR,0.00,740.00,VWS V14.01,2013-09-22 19:28:00,
2013-09-22 14:33:00,76.1,55.0,29.97,SSE,155,5.0,11.0,48,0.00,,CLR,0.00,737.00,VWS V14.01,2013-09-22 19:33:00,
2013-09-22 14:38:00,76.4,55.8,29.97,SSE,165,6.0,10.0,49,0.00,,CLR,0.00,726.00,VWS V14.01,2013-09-22 19:38:00,
2013-09-22 14:43:00,76.4,58.5,29.97,SE,144,1.0,7.0,54,0.00,,CLR,0.00,719.00,VWS V14.01,2013-09-22 19:43:00,
2013-09-22 14:48:00,77.1,57.6,29.97,SE,144,4.0,11.0,51,0.00,,CLR,0.00,712.00,VWS V14.01,2013-09-22 19:48:00,
2013-09-22 14:53:00,76.4,55.8,29.97,SSE,168,6.0,10.0,49,0.00,,CLR,0.00,703.00,VWS V14.01,2013-09-22 19:53:00,
2013-09-22 14:58:00,76.1,57.2,29.96,ESE,119,1.0,5.0,52,0.00,,CLR,0.00,693.00,VWS V14.01,2013-09-22 19:58:00,
2013-09-22 15:03:00,76.7,57.2,29.97,SE,143,4.0,7.0,51,0.00,,CLR,0.00,684.00,VWS V14.01,2013-09-22 20:03:00,
2013-09-22 15:08:00,76.1,56.1,29.96,SE,138,4.0,7.0,50,0.00,,CLR,0.00,675.00,VWS V14.01,2013-09-22 20:08:00,
2013-09-22 15:13:00,76.7,56.1,29.96,South,177,6.0,10.0,49,0.00,,CLR,0.00,664.00,VWS V14.01,2013-09-22 20:13:00,
2013-09-22 15:18:00,77.0,57.0,29.96,SSE,155,9.0,9.0,50,0.00,,CLR,0.00,654.00,VWS V14.01,2013-09-22 20:18:00,
2013-09-22 15:23:00,76.5,57.0,29.95,SSE,164,6.0,12.0,51,0.00,,CLR,0.00,645.00,VWS V14.01,2013-09-22 20:23:00,
2013-09-22 15:28:00,76.7,56.7,29.95,ESE,123,4.0,7.0,50,0.00,,CLR,0.00,633.00,VWS V14.01,2013-09-22 20:28:00,
2013-09-22 15:33:00,77.0,57.5,29.95,South,171,7.0,9.0,51,0.00,,CLR,0.00,621.00,VWS V14.01,2013-09-22 20:33:00,
2013-09-22 15:38:00,77.3,58.3,29.95,South,172,6.0,11.0,52,0.00,,CLR,0.00,610.00,VWS V14.01,2013-09-22 20:38:00,
2013-09-22 15:43:00,77.6,58.1,29.95,South,188,7.0,12.0,51,0.00,,CLR,0.00,599.00,VWS V14.01,2013-09-22 20:43:00,
2013-09-22 15:48:00,77.3,58.3,29.94,SE,143,6.0,9.0,52,0.00,,CLR,0.00,585.00,VWS V14.01,2013-09-22 20:48:00,
2013-09-22 15:53:00,77.0,56.4,29.94,SSE,153,6.0,10.0,49,0.00,,CLR,0.00,573.00,VWS V14.01,2013-09-22 20:53:00,
2013-09-22 15:58:00,76.6,58.7,29.94,South,179,5.0,7.0,54,0.00,,CLR,0.00,559.00,VWS V14.01,2013-09-22 20:58:00,
2013-09-22 16:03:00,77.1,58.1,29.94,SSW,205,10.0,10.0,52,0.00,,CLR,0.00,547.00,VWS V14.01,2013-09-22 21:03:00,
2013-09-22 16:08:00,77.3,58.8,29.94,SSW,207,9.0,9.0,53,0.00,,CLR,0.00,533.00,VWS V14.01,2013-09-22 21:08:00,
2013-09-22 16:13:00,77.2,57.7,29.94,South,183,11.0,12.0,51,0.00,,CLR,0.00,517.00,VWS V14.01,2013-09-22 21:13:00,
2013-09-22 16:18:00,77.2,56.6,29.94,SSE,166,4.0,7.0,49,0.00,,CLR,0.00,503.00,VWS V14.01,2013-09-22 21:18:00,
2013-09-22 16:23:00,77.1,57.6,29.94,SE,140,5.0,10.0,51,0.00,,CLR,0.00,487.00,VWS V14.01,2013-09-22 21:23:00,
2013-09-22 16:28:00,77.0,57.0,29.94,SSE,151,7.0,11.0,50,0.00,,CLR,0.00,471.00,VWS V14.01,2013-09-22 21:28:00,
2013-09-22 16:33:00,77.0,57.5,29.94,South,187,7.0,11.0,51,0.00,,CLR,0.00,459.00,VWS V14.01,2013-09-22 21:33:00,
2013-09-22 16:38:00,76.8,56.2,29.94,SSW,192,7.0,13.0,49,0.00,,CLR,0.00,443.00,VWS V14.01,2013-09-22 21:38:00,
2013-09-22 16:43:00,76.7,57.2,29.93,South,170,10.0,13.0,51,0.00,,CLR,0.00,427.00,VWS V14.01,2013-09-22 21:43:00,
2013-09-22 16:48:00,76.5,57.6,29.93,SSE,149,5.0,12.0,52,0.00,,CLR,0.00,413.00,VWS V14.01,2013-09-22 21:48:00,
2013-09-22 16:53:00,76.6,57.7,29.93,South,174,9.0,9.0,52,0.00,,CLR,0.00,396.00,VWS V14.01,2013-09-22 21:53:00,
2013-09-22 16:58:00,76.5,56.5,29.93,SSE,149,6.0,9.0,50,0.00,,CLR,0.00,380.00,VWS V14.01,2013-09-22 21:58:00,
2013-09-22 17:03:00,76.1,57.2,29.93,SE,144,9.0,10.0,52,0.00,,CLR,0.00,362.00,VWS V14.01,2013-09-22 22:03:00,
2013-09-22 17:08:00,76.0,57.1,29.93,SSE,153,6.0,11.0,52,0.00,,CLR,0.00,348.00,VWS V14.01,2013-09-22 22:08:00,
2013-09-22 17:13:00,75.6,56.2,29.93,SSE,152,5.0,6.0,51,0.00,,CLR,0.00,308.00,VWS V14.01,2013-09-22 22:13:00,
2013-09-22 17:18:00,75.3,56.5,29.94,South,185,6.0,9.0,52,0.00,,CLR,0.00,65.00,VWS V14.01,2013-09-22 22:18:00,
2013-09-22 17:23:00,75.2,57.4,29.93,SSE,152,4.0,5.0,54,0.00,,CLR,0.00,253.00,VWS V14.01,2013-09-22 22:23:00,
2013-09-22 17:28:00,74.9,56.1,29.93,SSE,160,6.0,7.0,52,0.00,,CLR,0.00,42.00,VWS V14.01,2013-09-22 22:28:00,
2013-09-22 17:33:00,74.7,55.9,29.94,SSE,153,9.0,9.0,52,0.00,,CLR,0.00,40.00,VWS V14.01,2013-09-22 22:33:00,
2013-09-22 17:38:00,74.4,55.7,29.93,ESE,118,5.0,9.0,52,0.00,,CLR,0.00,39.00,VWS V14.01,2013-09-22 22:38:00,
2013-09-22 17:43:00,74.2,56.0,29.93,SE,129,6.0,7.0,53,0.00,,CLR,0.00,37.00,VWS V14.01,2013-09-22 22:43:00,
2013-09-22 17:48:00,74.0,55.8,29.94,SSE,155,5.0,7.0,53,0.00,,CLR,0.00,37.00,VWS V14.01,2013-09-22 22:48:00,
2013-09-22 17:53:00,73.8,55.6,29.94,SE,144,6.0,6.0,53,0.00,,CLR,0.00,35.00,VWS V14.01,2013-09-22 22:53:00,
2013-09-22 17:58:00,73.5,55.3,29.94,South,171,5.0,10.0,53,0.00,,CLR,0.00,33.00,VWS V14.01,2013-09-22 22:58:00,
2013-09-22 18:03:00,73.3,55.7,29.94,SE,139,3.0,7.0,54,0.00,,CLR,0.00,32.00,VWS V14.01,2013-09-22 23:03:00,
2013-09-22 18:08:00,73.0,55.9,29.94,SSE,161,4.0,5.0,55,0.00,,CLR,0.00,35.00,VWS V14.01,2013-09-22 23:08:00,
2013-09-22 18:13:00,72.7,55.6,29.94,South,174,3.0,5.0,55,0.00,,CLR,0.00,26.00,VWS V14.01,2013-09-22 23:13:00,
2013-09-22 18:18:00,72.4,55.3,29.94,SE,141,4.0,8.0,55,0.00,,CLR,0.00,26.00,VWS V14.01,2013-09-22 23:18:00,
2013-09-22 18:23:00,72.2,55.2,29.94,SSE,156,2.0,6.0,55,0.00,,CLR,0.00,25.00,VWS V14.01,2013-09-22 23:23:00,
2013-09-22 18:28:00,71.9,55.4,29.94,SSE,162,1.0,6.0,56,0.00,,CLR,0.00,23.00,VWS V14.01,2013-09-22 23:28:00,
2013-09-22 18:33:00,71.7,55.2,29.94,SSE,162,1.0,4.0,56,0.00,,CLR,0.00,21.00,VWS V14.01,2013-09-22 23:33:00,
2013-09-22 18:38:00,71.3,55.3,29.94,SSW,203,2.0,3.0,57,0.00,,CLR,0.00,19.00,VWS V14.01,2013-09-22 23:38:00,
2013-09-22 18:43:00,71.0,55.5,29.94,SE,146,1.0,4.0,58,0.00,,CLR,0.00,16.00,VWS V14.01,2013-09-22 23:43:00,
2013-09-22 18:48:00,70.5,55.5,29.94,SSE,163,3.0,5.0,59,0.00,,CLR,0.00,14.00,VWS V14.01,2013-09-22 23:48:00,
2013-09-22 18:53:00,70.3,55.3,29.94,SSE,158,1.0,3.0,59,0.00,,CLR,0.00,12.00,VWS V14.01,2013-09-22 23:53:00,
2013-09-22 18:58:00,70.1,55.1,29.94,SE,145,3.0,3.0,59,0.00,,CLR,0.00,9.00,VWS V14.01,2013-09-22 23:58:00,
2013-09-22 19:03:00,70.0,55.0,29.94,ESE,117,3.0,3.0,59,0.00,,CLR,0.00,7.00,VWS V14.01,2013-09-23 00:03:00,
2013-09-22 19:08:00,69.6,55.6,29.94,SSE,160,0.0,2.0,61,0.00,,CLR,0.00,5.00,VWS V14.01,2013-09-23 00:08:00,
2013-09-22 19:13:00,69.0,55.5,29.94,ESE,123,1.0,3.0,62,0.00,,CLR,0.00,0.00,VWS V14.01,2013-09-23 00:13:00,
2013-09-22 19:18:00,68.5,55.4,29.94,SE,135,2.0,3.0,63,0.00,,CLR,0.00,0.00,VWS V14.01,2013-09-23 00:18:00,
2013-09-22 19:23:00,67.8,55.2,29.94,SE,134,0.0,2.0,64,0.00,,CLR,0.00,0.00,VWS V14.01,2013-09-23 00:23:00,
2013-09-22 19:28:00,67.2,54.6,29.94,SE,124,1.0,3.0,64,0.00,,CLR,0.00,0.00,VWS V14.01,2013-09-23 00:28:00,
2013-09-22 19:33:00,66.8,54.2,29.94,ESE,110,0.0,3.0,64,0.00,,CLR,0.00,0.00,VWS V14.01,2013-09-23 00:33:00,
2013-09-22 19:38:00,66.4,54.3,29.94,ESE,110,0.0,1.0,65,0.00,,CLR,0.00,0.00,VWS V14.01,2013-09-23 00:38:00,
2013-09-22 19:43:00,65.9,54.2,29.94,ESE,116,1.0,2.0,66,0.00,,CLR,0.00,0.00,VWS V14.01,2013-09-23 00:43:00,
2013-09-22 19:48:00,65.7,54.0,29.94,ESE,112,0.0,2.0,66,0.00,,CLR,0.00,0.00,VWS V14.01,2013-09-23 00:48:00,
2013-09-22 19:53:00,65.7,54.0,29.94,ESE,118,2.0,3.0,66,0.00,,CLR,0.00,0.00,VWS V14.01,2013-09-23 00:53:00,
2013-09-22 19:58:00,65.5,53.8,29.94,ESE,120,0.0,2.0,66,0.00,,CLR,0.00,0.00,VWS V14.01,2013-09-23 00:58:00,
2013-09-22 20:03:00,65.2,54.0,29.94,ESE,118,0.0,2.0,67,0.00,,CLR,0.00,0.00,VWS V14.01,2013-09-23 01:03:00,
2013-09-22 20:08:00,65.0,53.8,29.94,ESE,112,2.0,3.0,67,0.00,,CLR,0.00,0.00,VWS V14.01,2013-09-23 01:08:00,
2013-09-22 20:13:00,64.9,53.7,29.95,SE,131,1.0,3.0,67,0.00,,CLR,0.00,0.00,VWS V14.01,2013-09-23 01:13:00,
2013-09-22 20:18:00,64.7,53.9,29.95,East,96,2.0,3.0,68,0.00,,CLR,0.00,0.00,VWS V14.01,2013-09-23 01:18:00,
2013-09-22 20:23:00,64.5,53.7,29.95,ESE,118,0.0,5.0,68,0.00,,CLR,0.00,0.00,VWS V14.01,2013-09-23 01:23:00,
2013-09-22 20:28:00,64.4,53.6,29.95,ESE,118,0.0,3.0,68,0.00,,CLR,0.00,0.00,VWS V14.01,2013-09-23 01:28:00,
2013-09-22 20:33:00,64.3,53.5,29.95,ESE,102,1.0,3.0,68,0.00,,CLR,0.00,0.00,VWS V14.01,2013-09-23 01:33:00,
2013-09-22 20:38:00,64.3,53.5,29.95,ESE,109,2.0,3.0,68,0.00,,CLR,0.00,0.00,VWS V14.01,2013-09-23 01:38:00,
2013-09-22 20:43:00,64.2,53.4,29.95,ESE,119,3.0,3.0,68,0.00,,CLR,0.00,0.00,VWS V14.01,2013-09-23 01:43:00,
2013-09-22 20:48:00,64.0,53.2,29.95,ESE,120,0.0,2.0,68,0.00,,CLR,0.00,0.00,VWS V14.01,2013-09-23 01:48:00,
2013-09-22 20:53:00,64.1,53.3,29.95,SE,141,3.0,4.0,68,0.00,,CLR,0.00,0.00,VWS V14.01,2013-09-23 01:53:00,
2013-09-22 20:58:00,64.0,53.2,29.95,ESE,119,2.0,2.0,68,0.00,,CLR,0.00,0.00,VWS V14.01,2013-09-23 01:58:00,
2013-09-22 21:03:00,63.9,53.1,29.96,SE,130,1.0,3.0,68,0.00,,CLR,0.00,0.00,VWS V14.01,2013-09-23 02:03:00,
2013-09-22 21:09:00,64.1,52.9,29.96,South,173,2.0,4.0,67,0.00,,CLR,0.00,0.00,VWS V14.01,2013-09-23 02:09:00,
2013-09-22 21:14:00,64.1,52.9,29.96,SE,129,1.0,3.0,67,0.00,,CLR,0.00,0.00,VWS V14.01,2013-09-23 02:14:00,
2013-09-22 21:19:00,63.9,53.1,29.96,ESE,106,2.0,5.0,68,0.00,,CLR,0.00,0.00,VWS V14.01,2013-09-23 02:19:00,
2013-09-22 21:24:00,63.7,53.0,29.96,ESE,105,2.0,4.0,68,0.00,,CLR,0.00,0.00,VWS V14.01,2013-09-23 02:24:00,
2013-09-22 21:29:00,63.2,52.9,29.97,ESE,120,3.0,3.0,69,0.00,,CLR,0.00,0.00,VWS V14.01,2013-09-23 02:29:00,
2013-09-22 21:34:00,62.8,52.5,29.97,East,95,1.0,2.0,69,0.00,,CLR,0.00,0.00,VWS V14.01,2013-09-23 02:34:00,
2013-09-22 21:39:00,62.6,52.7,29.97,ESE,110,1.0,2.0,70,0.00,,CLR,0.00,0.00,VWS V14.01,2013-09-23 02:39:00,
2013-09-22 21:44:00,62.2,52.7,29.97,ESE,121,0.0,3.0,71,0.00,,CLR,0.00,0.00,VWS V14.01,2013-09-23 02:44:00,
2013-09-22 21:49:00,62.1,52.6,29.97,ESE,116,2.0,3.0,71,0.00,,CLR,0.00,0.00,VWS V14.01,2013-09-23 02:49:00,
2013-09-22 21:54:00,61.9,52.4,29.96,East,101,2.0,4.0,71,0.00,,CLR,0.00,0.00,VWS V14.01,2013-09-23 02:54:00,
2013-09-22 21:59:00,61.7,52.2,29.97,SSE,149,4.0,4.0,71,0.00,,CLR,0.00,0.00,VWS V14.01,2013-09-23 02:59:00,
2013-09-22 22:04:00,61.7,52.2,29.97,ESE,118,2.0,3.0,71,0.00,,CLR,0.00,0.00,VWS V14.01,2013-09-23 03:04:00,
2013-09-22 22:09:00,61.6,52.1,29.97,ESE,122,1.0,3.0,71,0.00,,CLR,0.00,0.00,VWS V14.01,2013-09-23 03:09:00,
2013-09-22 22:14:00,61.7,51.8,29.97,SE,136,0.0,3.0,70,0.00,,CLR,0.00,0.00,VWS V14.01,2013-09-23 03:14:00,
2013-09-22 22:19:00,61.7,51.8,29.97,ESE,113,0.0,4.0,70,0.00,,CLR,0.00,0.00,VWS V14.01,2013-09-23 03:19:00,
2013-09-22 22:24:00,61.6,51.7,29.97,East,83,1.0,5.0,70,0.00,,CLR,0.00,0.00,VWS V14.01,2013-09-23 03:24:00,
2013-09-22 22:29:00,61.4,51.5,29.97,East,97,2.0,4.0,70,0.00,,CLR,0.00,0.00,VWS V14.01,2013-09-23 03:29:00,
2013-09-22 22:34:00,61.1,51.6,29.97,ESE,122,0.0,3.0,71,0.00,,CLR,0.00,0.00,VWS V14.01,2013-09-23 03:34:00,
2013-09-22 22:39:00,61.0,51.5,29.97,SE,130,0.0,3.0,71,0.00,,CLR,0.00,0.00,VWS V14.01,2013-09-23 03:39:00,
2013-09-22 22:44:00,60.7,51.6,29.98,ESE,119,3.0,3.0,72,0.00,,CLR,0.00,0.00,VWS V14.01,2013-09-23 03:44:00,
2013-09-22 22:49:00,60.6,51.5,29.97,ESE,108,1.0,3.0,72,0.00,,CLR,0.00,0.00,VWS V14.01,2013-09-23 03:49:00,
2013-09-22 22:54:00,60.2,51.5,29.97,ESE,120,1.0,3.0,73,0.00,,CLR,0.00,0.00,VWS V14.01,2013-09-23 03:54:00,
2013-09-22 22:59:00,59.9,51.2,29.97,East,98,1.0,4.0,73,0.00,,CLR,0.00,0.00,VWS V14.01,2013-09-23 03:59:00,
2013-09-22 23:01:00,59.9,51.2,29.98,SE,124,1.0,3.0,73,0.00,,CLR,0.00,0.00,VWS V14.01,2013-09-23 04:01:00,
2013-09-22 23:02:00,59.9,51.2,29.98,SE,130,1.0,5.0,73,0.00,,CLR,0.00,0.00,VWS V14.01,2013-09-23 04:02:00,
2013-09-22 23:07:00,59.7,51.0,29.98,ESE,104,2.0,4.0,73,0.00,,CLR,0.00,0.00,VWS V14.01,2013-09-23 04:07:00,
2013-09-22 23:12:00,59.4,50.8,29.97,East,95,2.0,4.0,73,0.00,,CLR,0.00,0.00,VWS V14.01,2013-09-23 04:12:00,
2013-09-22 23:17:00,59.0,50.7,29.98,ESE,120,1.0,3.0,74,0.00,,CLR,0.00,0.00,VWS V14.01,2013-09-23 04:17:00,
2013-09-22 23:22:00,59.0,50.7,29.98,ESE,102,1.0,4.0,74,0.00,,CLR,0.00,0.00,VWS V14.01,2013-09-23 04:22:00,
2013-09-22 23:27:00,58.8,50.5,29.98,SE,145,0.0,4.0,74,0.00,,CLR,0.00,0.00,VWS V14.01,2013-09-23 04:27:00,
2013-09-22 23:32:00,58.5,50.6,29.98,ESE,113,2.0,3.0,75,0.00,,CLR,0.00,0.00,VWS V14.01,2013-09-23 04:32:00,
2013-09-22 23:37:00,58.2,50.3,29.98,SE,143,2.0,3.0,75,0.00,,CLR,0.00,0.00,VWS V14.01,2013-09-23 04:37:00,
2013-09-22 23:42:00,58.1,50.2,29.98,ESE,120,0.0,4.0,75,0.00,,CLR,0.00,0.00,VWS V14.01,2013-09-23 04:42:00,
2013-09-22 23:47:00,58.0,50.5,29.98,SE,141,3.0,4.0,76,0.00,,CLR,0.00,0.00,VWS V14.01,2013-09-23 04:47:00,
2013-09-22 23:52:00,57.8,50.3,29.98,SSE,162,3.0,3.0,76,0.00,,CLR,0.00,0.00,VWS V14.01,2013-09-23 04:52:00,
2013-09-22 23:57:00,57.8,50.3,29.98,SSE,155,0.0,5.0,76,0.00,,CLR,0.00,0.00,VWS V14.01,2013-09-23 04:57:00,